GW6414 Weather Reports


time (UTC)temp
F
wind
direction
speed
knots
gust
knots
rain 1hr
in
rain 24hr
in
rain mn
in
humidity
%
barometer
mb
20260506123527 56 327 0.9 2.6 0.00 0.00 0.00 77 1013.0
20260506122530 56 353 0.9 2.6 0.00 0.00 0.00 76 1012.8
20260506121603 56 314 1.7 5.2 0.00 0.00 0.00 75 1012.8
20260506120527 57 360 0.0 1.7 0.00 0.00 0.00 75 1012.7
20260506115528 57 342 0.9 3.5 0.00 0.00 0.00 75 1012.6
20260506114528 57 348 0.9 2.6 0.00 0.00 0.00 74 1012.4
20260506113528 57 355 0.9 2.6 0.00 0.00 0.00 74 1012.2
20260506112529 57 354 0.9 2.6 0.00 0.00 0.00 73 1011.8
20260506111528 58 354 0.9 3.5 0.00 0.00 0.00 73 1012.0
20260506110520 58 338 0.9 4.3 0.00 0.00 0.00 73 1011.7
20260506105529 58 335 0.9 3.5 0.00 0.00 0.00 72 1011.6
20260506104520 58 342 1.7 5.2 0.00 0.00 0.00 72 1011.4
20260506103519 58 337 0.9 5.2 0.00 0.00 0.00 72 1011.3
20260506102529 59 304 1.7 2.6 0.00 0.00 0.00 72 1011.0
20260506101529 59 322 0.9 3.5 0.00 0.00 0.00 73 1010.9
20260506100529 59 323 0.9 1.7 0.00 0.00 0.00 73 1010.7
20260506095550 59 329 0.9 2.6 0.00 0.00 0.00 73 1010.6
20260506094529 59 320 1.7 3.5 0.00 0.00 0.00 73 1010.6
20260506093530 59 335 0.9 4.3 0.00 0.00 0.00 73 1010.4
20260506092530 59 342 0.9 2.6 0.00 0.00 0.00 74 1010.4
20260506091530 59 319 0.9 2.6 0.00 0.00 0.00 73 1010.3
20260506090530 59 8 0.0 1.7 0.00 0.00 0.00 73 1010.3
20260506085530 59 359 0.0 1.7 0.00 0.00 0.00 72 1010.2
20260506084551 60 301 0.0 1.7 0.00 0.00 0.00 72 1010.1
20260506083551 60 316 0.9 2.6 0.00 0.00 0.00 73 1010.0
20260506082516 60 347 0.9 1.7 0.00 0.00 0.00 74 1010.0
20260506081516 60 344 0.0 1.7 0.00 0.00 0.00 74 1010.0
20260506080556 60 355 0.0 1.7 0.00 0.00 0.00 74 1009.8
20260506073517 61 53 0.0 1.7 0.00 0.00 0.00 74 1009.5
20260506072517 61 5 0.9 1.7 0.00 0.00 0.00 74 1009.7
20260506071517 61 355 0.0 1.7 0.00 0.00 0.00 74 1009.6
20260506070517 61 357 0.0 1.7 0.00 0.00 0.00 74 1009.8
20260506061518 62 10 0.9 1.7 0.00 0.00 0.00 75 1009.6
20260506060518 63 348 0.9 1.7 0.00 0.00 0.00 75 1009.6
20260506050519 64 348 0.0 1.7 0.00 0.00 0.00 75 1009.6
20260506044520 65 339 0.9 1.7 0.00 0.00 0.00 75 1009.5
20260506043539 65 331 0.9 3.5 0.00 0.00 0.00 75 1009.6
20260506042600 65 313 1.7 3.5 0.00 0.00 0.00 74 1009.5
20260506041540 66 349 0.0 1.7 0.00 0.00 0.00 74 1009.4
20260506040520 66 316 0.9 2.6 0.00 0.00 0.00 73 1009.2
20260506035520 67 1 0.9 2.6 0.00 0.00 0.00 73 1008.8
20260506034518 67 351 0.9 1.7 0.00 0.00 0.00 73 1008.7
20260506033518 68 329 0.9 3.5 0.00 0.00 0.00 72 1008.6
20260506032516 69 341 0.9 3.5 0.00 0.00 0.00 72 1008.5
20260506031518 70 327 0.9 3.5 0.00 0.00 0.00 72 1008.4
20260506030515 70 10 0.9 2.6 0.00 0.00 0.00 72 1008.1
20260506025516 71 10 0.9 4.3 0.00 0.00 0.00 71 1008.1
20260506024516 71 322 0.9 3.5 0.00 0.00 0.00 71 1007.9
20260506023516 71 313 0.9 4.3 0.00 0.00 0.00 70 1007.6
20260506022516 71 314 0.9 3.5 0.00 0.00 0.00 70 1007.2
20260506021517 71 304 0.9 5.2 0.00 0.00 0.00 69 1007.0
20260506020557 72 312 2.6 6.1 0.00 0.00 0.00 69 1006.7
20260506015517 72 323 0.9 2.6 0.00 0.00 0.00 69 1006.3
20260506014517 72 313 0.9 3.5 0.00 0.00 0.00 68 1006.4
20260506013517 72 313 0.9 4.3 0.00 0.00 0.00 68 1006.3
20260506012517 73 314 1.7 5.2 0.00 0.00 0.00 67 1006.0
20260506011518 74 317 0.9 3.5 0.00 0.00 0.00 66 1006.1
20260506010521 75 325 0.9 3.5 0.00 0.00 0.00 66 1006.2
20260506005518 75 347 0.9 2.6 0.00 0.00 0.00 65 1006.0
20260506004518 76 345 0.9 1.7 0.00 0.00 0.00 64 1005.5
20260506003538 77 356 0.9 1.7 0.00 0.00 0.00 63 1005.4
20260506002516 78 336 0.9 4.3 0.00 0.00 0.00 62 1005.2
20260506001516 79 331 0.9 4.3 0.00 0.00 0.00 62 1005.0
20260506000516 81 328 1.7 6.1 0.00 0.00 0.00 60 1004.9
20260505235516 82 315 0.9 7.0 0.00 0.00 0.00 60 1004.6
20260505234516 83 357 0.9 3.5 0.00 0.00 0.00 58 1004.5
20260505233517 84 312 1.7 7.8 0.00 0.00 0.00 57 1004.4
20260505232517 85 314 1.7 6.1 0.00 0.00 0.00 54 1004.5
20260505231517 86 311 3.5 7.8 0.00 0.00 0.00 53 1004.2
20260505230537 86 310 2.6 7.8 0.00 0.00 0.00 50 1004.1
20260505225518 87 310 2.6 7.8 0.00 0.00 0.00 48 1003.8
20260505224517 87 307 2.6 7.8 0.00 0.00 0.00 47 1003.7
20260505223518 89 313 1.7 8.7 0.00 0.00 0.00 47 1003.8
20260505222538 90 307 1.7 7.8 0.00 0.00 0.00 46 1003.4
20260505221518 92 311 2.6 7.0 0.00 0.00 0.00 47 1003.1
20260505220518 92 319 0.9 4.3 0.00 0.00 0.00 46 1003.1
20260505215518 93 321 1.7 5.2 0.00 0.00 0.00 46 1003.3
20260505214518 93 341 0.9 3.5 0.00 0.00 0.00 46 1003.3
20260505213515 93 344 0.9 2.6 0.00 0.00 0.00 46 1003.3
20260505212516 93 345 0.9 3.5 0.00 0.00 0.00 48 1003.5
20260505211516 93 352 0.9 5.2 0.00 0.00 0.00 47 1003.6
20260505210516 93 346 0.9 2.6 0.00 0.00 0.00 48 1003.7
20260505205518 93 98 0.9 6.1 0.00 0.00 0.00 49 1003.7
20260505204516 93 113 0.9 4.3 0.00 0.00 0.00 51 1003.9
20260505203516 93 323 1.7 4.3 0.00 0.00 0.00 50 1004.0
20260505202516 92 330 0.9 3.5 0.00 0.00 0.00 52 1004.3
20260505201516 91 317 1.7 6.1 0.00 0.00 0.00 52 1004.2
20260505200517 92 99 0.9 7.8 0.00 0.00 0.00 52 1004.3
20260505195517 91 81 0.9 2.6 0.00 0.00 0.00 54 1004.4
20260505194517 91 107 1.7 4.3 0.00 0.00 0.00 53 1004.5
20260505193517 91 114 1.7 7.8 0.00 0.00 0.00 55 1004.5
20260505192517 90 91 1.7 3.5 0.00 0.00 0.00 54 1004.5
20260505191517 90 116 1.7 5.2 0.00 0.00 0.00 55 1004.5
20260505190518 89 8 0.9 3.5 0.00 0.00 0.00 57 1004.5
20260505185518 87 50 0.9 5.2 0.00 0.00 0.00 59 1004.6
20260505184518 87 122 1.7 6.1 0.00 0.00 0.00 60 1004.7
20260505183518 87 339 0.9 4.3 0.00 0.00 0.00 59 1004.8
20260505182515 87 62 0.9 2.6 0.00 0.00 0.00 60 1004.8
20260505181516 86 348 0.9 4.3 0.00 0.00 0.00 60 1004.9
20260505180516 86 113 1.7 4.3 0.00 0.00 0.00 60 1004.8
20260505175516 86 100 1.7 5.2 0.00 0.00 0.00 60 1004.8
20260505174516 87 50 0.9 3.5 0.00 0.00 0.00 60 1004.7
20260505173517 86 114 1.7 6.1 0.00 0.00 0.00 61 1004.8
20260505172516 86 21 1.7 5.2 0.00 0.00 0.00 62 1004.9
20260505171517 85 65 0.9 5.2 0.00 0.00 0.00 64 1004.9
20260505170517 84 93 0.9 3.5 0.00 0.00 0.00 65 1004.9
20260505165517 84 115 1.7 6.1 0.00 0.00 0.00 65 1004.9
20260505164517 84 44 0.9 2.6 0.00 0.00 0.00 65 1005.0
20260505163517 83 126 1.7 7.0 0.00 0.00 0.00 67 1004.9
20260505162518 84 125 1.7 5.2 0.00 0.00 0.00 65 1004.9
20260505161537 82 141 3.5 7.0 0.00 0.00 0.00 68 1004.9
20260505160518 82 70 0.9 4.3 0.00 0.00 0.00 69 1004.8
20260505152519 79 78 1.7 3.5 0.00 0.00 0.00 73 1004.6
20260505151516 78 110 1.7 5.2 0.00 0.00 0.00 75 1004.8
20260505150519 77 136 0.9 4.3 0.00 0.00 0.00 77 1004.8
20260505140517 74 116 1.7 5.2 0.00 0.00 0.00 82 1004.4
20260505124601 71 140 1.7 4.3 0.00 0.00 0.00 86 1004.3